Miscellaneous Local Product
Issued by NWS Hastings, NE

Home | Current Version | Previous Version | Graphics & Text | Print | Product List | Glossary On
Versions: 1 2 3 4 5 6 7 8 9 10 11 12 13 14 15 16 17 18 19 20 21 22 23 24 25 26 27 28 29 30 31 32 33 34 35 36 37 38 39 40 41 42 43 44 45 46 47 48 49 50
000
AXUS43 KGID 031602
MISGRI

GID CWA HOURLY WEATHER ROUNDUP
NATIONAL WEATHER SERVICE HASTINGS NE
1000 AM CST SAT DEC 03 2016

NOTE: "FAIR" INDICATES FEW OR NO CLOUDS BELOW 12,000 FEET WITH NO
SIGNIFICANT WEATHER AND/OR OBSTRUCTIONS TO VISIBILITY.

...SOUTH CENTRAL NEBRASKA...

CITY           SKY/WX    TMP DP  RH WIND       PRES   REMARKS
GRAND ISLAND   FLURRIES  33  29  85 S10       30.23R WCI  25
HASTINGS       LGT SNOW  32  30  92 S8        30.23S FOG     WCI  25
KEARNEY        CLOUDY    32  27  80 S7        30.20R WCI  26
ORD            CLOUDY    35  26  69 S10       30.16S WCI  27
YORK           CLOUDY    32  30  93 S5        30.25R WCI  27
AURORA         LGT SNOW  32  30  93 S6        30.24R WCI  26
LEXINGTON      CLOUDY    32  27  79 S13       30.16F WCI  23
HOLDREGE       CLOUDY    32  29  87 S6        30.19S WCI  26
HEBRON         MIX PCPN  32  31  97 CALM      30.27S

...NEBRASKA PANHANDLE...

CITY           SKY/WX    TMP DP  RH WIND       PRES   REMARKS
CHADRON        SUNNY     33  15  47 SW10      29.95F WCI  25
ALLIANCE       SUNNY     32  17  54 SW16      29.98F WCI  21
SCOTTSBLUFF    SUNNY     28  15  58 SE3       30.00S
SIDNEY         SUNNY     29  22  75 SW13      30.02F WCI  19

...WESTERN AND NORTH CENTRAL NEBRASKA...

CITY           SKY/WX    TMP DP  RH WIND       PRES   REMARKS
VALENTINE      MOSUNNY   38  25  59 S16       30.02F WCI  29
AINSWORTH      CLOUDY    35  28  76 S12       30.06F WCI  27
ONEILL         CLOUDY    33  31  90 S5        30.14S WCI  29
BROKEN BOW     CLOUDY    34  27  75 SW13      30.13S WCI  25
IMPERIAL       SUNNY     32  20  61 SW13      30.10F WCI  22
NORTH PLATTE   CLOUDY    34  23  64 S9        30.11F WCI  27
MCCOOK         CLOUDY    32  25  75 CALM      30.15S

...EASTERN NEBRASKA...

CITY           SKY/WX    TMP DP  RH WIND       PRES   REMARKS
NORFOLK        CLOUDY    31  28  89 S8        30.22R WCI  23
SO SIOUX CITY  MOSUNNY   31  28  89 SE9       30.25F WCI  23
TEKAMAH        CLOUDY    30  28  92 S7        30.27S WCI  23
COLUMBUS       CLOUDY    28  27  93 SE5       30.25R WCI  23
ALBION         CLOUDY    32  28  86 S6        30.21R WCI  26
OMAHA EPPLEY   CLOUDY    31  27  85 S8        30.29R WCI  23
OFFUTT AFB     PTSUNNY   29  29 100 SE6       30.30R WCI  23
MILLARD        CLOUDY    32  29  89 SE7       30.30R WCI  26
LINCOLN        CLOUDY    29  26  89 CALM      30.30R
NEBRASKA CITY  CLOUDY    32  29  90 SE6       30.30R WCI  26
BEATRICE       LGT SNOW  33  31  92 S3        30.30R
FALLS CITY       N/A    N/A N/A N/A MISG      30.29R

...NORTHERN KANSAS...

CITY           SKY/WX    TMP DP  RH WIND       PRES   REMARKS
GOODLAND       CLOUDY    30  22  72 SW7       30.11S WCI  23
HILL CITY      CLOUDY    31  29  92 CALM      30.20F FOG
NORTON         CLOUDY    34  27  75 SE7       30.18  WCI  28
PHILLIPSBURG   LGT SNOW  32  32 100 CALM      30.23F
SMITH CENTER   LGT SNOW  30  30 100 CALM      30.24F VSB 3/4
BELOIT         CLOUDY    34  30  86 CALM      30.25R
HAYS           LGT SNOW  32  31  96 NE3       30.22S VSB 1
RUSSELL        LGT SNOW  32  30  92 N6        30.20F FOG     WCI  26
CONCORDIA      CLOUDY    33  30  88 E6        30.26R WCI  28
SALINA         CLOUDY    38  30  73 E8        30.23F WCI  32
TOPEKA         CLOUDY    38  31  76 E7        30.28S WCI  33



USA.gov is the U.S. government's official web portal to all federal, state and local government web resources and services.